www.pogodaiklimat.ru

Погода и климат >> Архив погоды >> Вьетнам >> Буонметхуот


ПОГОДА в Буонметхуоте

  • Прогноз погоды в Буонметхуоте
  • Монитор погоды в Буонметхуоте

АРХИВ ПОГОДЫ в Буонметхуоте

Время (UTC), дата Ветер
(напр.,м/с)
 
Видим.   Явления Облачность Т
(С)
Тd
(С)
f
(%)
Тe
(С)
Тes
(С)
Комфортность P
(гПа)
Po
(гПа)
Тmin
(С)
Tmax
(С)
R
(мм)
R24
(мм)
S
(см)
09 9.09 СЗ 1 10 км слаб. ливневой дождь 9/9 300 м
[Cu Sc]
+27.5 +24.0 81 +38 +39 очень
душно
1006.1 953.8
12 9.09 ЮВ 1 10 км слаб. дождь {гроза} 10/10 450 м
[Cb cap]
+22.7 +21.8 95 +30 +30 очень
душно
1009.7 956.3 +22.3 +29.4 16
15 9.09 ЮЗ 1 10 км {дождь} 8/8 600 м
[Cu Sc]
+22.6 +21.8 95 +30 +30 очень
душно
1011.6 957.9
18 9.09 штиль 0 10 км {дождь} 9/9 800 м
[Cu Sc]
+22.7 +21.9 95 +30 +30 очень
душно
1010.7 957.3 0.8
21 9.09 Ю 1 10 км 9/1 600 м
[Cu hum Cs]
+21.7 +20.7 94 +28 +28 душно 1009.5 956.1
00 10.09 штиль 0 20 км 9/9
[Cu Sc]
+22.6 +21.5 94 +30 +30 очень
душно
1011.5 957.8 +21.4 0.8
03 10.09 З 3 20 км 9/9 600 м
[Cu Sc]
+28.8 +22.0 67 +37 +39 очень
душно
1011.0 958.4
06 10.09 СЗ 4 20 км 8/8 800 м
[Cu med, cong]
+29.6 +22.2 64 +38 +41 очень
душно
1008.7 956.7 0.8
09 10.09 СЗ 2 20 км {ливн. осадки} 8/8 600 м
[Cu med, cong]
+29.6 +22.9 67 +39 +40 очень
душно
1008.5 956.5
12 10.09 СЗ 2 20 км {ливн. осадки} 8/8 800 м
[Cu Sc]
+26.6 +23.5 83 +36 +36 очень
душно
1011.1 958.1 +30.5 0.1
15 10.09 штиль 0 20 км 8/8 600 м
[Cu Sc]
+25.0 +23.2 90 +33 +33 очень
душно
1012.2 959.2
18 10.09 штиль 0 20 км 9/9 450 м
[Cu Sc]
+23.7 +21.7 89 +30 +30 очень
душно
1012.4 959.1
21 10.09 Ю 1 20 км 9/9 300 м
[Cu Sc]
+22.9 +21.3 91 +30 +30 очень
душно
1012.5 958.8
00 11.09 штиль 0 20 км 9/9 300 м
[Cu Sc]
+23.6 +22.4 93 +31 +31 очень
душно
1013.4 960.1 +22.2
06 11.09 СЗ 3 20 км 8/4 600 м
[Cu Sc Cs]
+29.3 +22.2 66 +38 +47 очень
душно
1011.1 958.9
09 11.09 СЗ 3 20 км 8/3 800 м
[Cb cap Cs]
+30.0 +22.2 63 +39 +41 очень
душно
1009.3 957.3
12 11.09 СЗ 1 20 км 6/1 1230 м
[Sc Cs]
+27.0 +22.7 77 +36 +36 очень
душно
1010.9 958.3 +30.9
15 11.09 штиль 0 20 км 8/3 600 м
[Cu Sc Cs]
+24.2 +22.4 90 +32 +32 очень
душно
1013.4 960.1
18 11.09 Ю 1 20 км 4/0
[Cs]
+23.1 +21.9 93 +31 +31 очень
душно
1012.4 959.1
21 11.09 штиль 0 20 км 9/9 450 м
[Cu Sc]
+22.9 +21.8 94 +31 +31 очень
душно
1011.9 958.2
00 12.09 Ю 1 20 км 8/8 800 м
[Cu Sc]
+23.6 +22.1 91 +30 +31 очень
душно
1012.5 959.2 +22.6
03 12.09 З 3 20 км 8/8 600 м
[Cu Sc]
+26.8 +22.3 76 +35 +38 очень
душно
1012.9 959.9
06 12.09 З 3 20 км 9/9 600 м
[Cu Sc]
+27.9 +23.7 78 +38 +40 очень
душно
1009.4 957.1
09 12.09 З 2 20 км {гроза, ливн. осадки} 8/8 600 м
[Cu Sc]
+27.2 +22.4 75 +36 +37 очень
душно
1008.0 955.7
12 12.09 З 2 20 км зарница {гроза} 8/8 600 м
[Cb cap]
+26.0 +23.3 85 +35 +35 очень
душно
1009.0 956.3 +29.2 4
15 12.09 Ю 1 20 км 9/9 800 м
[Cu Sc]
+24.5 +23.1 92 +33 +33 очень
душно
1011.0 957.7
18 12.09 СВ 1 4000 м дождь 10/10 300 м
[Cu Sc]
+23.4 +22.6 95 +32 +32 очень
душно
1009.8 956.7 11
21 12.09 Ю 1 10 км {гроза} 9/9 800 м
[Cu Sc]
+21.5 +20.8 96 +27 +27 душно 1009.5 956.1
00 13.09 штиль 0 10 км {ливн. осадки, дождь} 10/10 450 м
[Cu Sc]
+22.6 +22.0 96 +30 +30 очень
душно
1009.9 956.5 +21.0 25
03 13.09 З 2 20 км 9/9 600 м
[Cu Sc]
+25.6 +22.8 85 +34 +36 очень
душно
1010.6 957.6
06 13.09 З 3 4000 м гроза, ливневой дождь 10/10 300 м
[Cb cap]
+22.8 +22.2 96 +31 +31 очень
душно
1008.6 955.2 46
09 13.09 штиль 0 10 км {ливн. осадки} 10/10 450 м
[Cb cap]
+24.0 +22.9 94 +32 +32 очень
душно
1006.7 953.6
12 13.09 штиль 0 10 км {гроза} 9/9 450 м
[Cu Sc]
+23.5 +22.7 95 +31 +31 очень
душно
1008.3 955.2 +26.5 49
15 13.09 штиль 0 10 км {дождь} 9/9 300 м
[Cu Sc]
+23.3 +22.4 95 +32 +32 очень
душно
1008.7 955.6
18 13.09 штиль 0 10 км {дождь} 9/9 450 м
[Cu Sc]
+22.9 +21.3 91 +30 +30 очень
душно
1008.2 954.8 0.4
21 13.09 штиль 0 10 км 9/9 300 м
[Cu Sc]
+22.6 +22.0 96 +30 +30 очень
душно
1007.9 954.5
00 14.09 ЮВ 1 10 км в посл. час дождь 9/9
[Cu Sc]
+23.4 +22.3 94 +32 +32 очень
душно
1008.8 955.7 +22.4 0.6
03 14.09 С 1 20 км 9/8 600 м
[Cu Sc Cs]
+27.1 +21.2 70 +34 +38 очень
душно
1008.0 955.7
06 14.09 СЗ 2 20 км 9/9 800 м
[Cu Sc]
+29.6 +22.9 67 +39 +41 очень
душно
1006.8 954.8
09 14.09 С 2 20 км 9/8 800 м
[Cb cap Ac lent]
+27.3 +22.5 75 +36 +36 очень
душно
1005.3 953.0
12 14.09 ЮВ 2 20 км 9/9
[Cu Sc]
+25.4 +20.8 76 +32 +32 очень
душно
1007.6 954.9 +30.2 0.6
15 14.09 ЮВ 1 20 км 10/10 600 м
[Cu Sc]
+24.1 +21.7 86 +31 +31 очень
душно
1009.0 955.9
18 14.09 ЮВ 1 20 км 9/9 300 м
[Cu Sc]
+22.9 +21.3 91 +30 +30 очень
душно
1009.1 955.7
21 14.09 С 1 20 км 8/3 1000 м
[Sc Cs]
+21.8 +21.0 95 +28 +28 душно 1008.6 955.2
00 15.09 штиль 0 20 км 8/4 1230 м
[Sc Cs]
+22.4 +21.6 95 +30 +31 очень
душно
1010.0 956.6 +21.1
03 15.09 штиль 0 20 км 8/8 600 м
[Cu med, cong]
+27.5 +21.7 71 +35 +40 очень
душно
1008.9 956.6
06 15.09 СЗ 2 20 км 9/4 600 м
[Cu med, cong Cs]
+30.3 +20.8 57 +38 +47 очень
душно
1005.9 953.9
09 15.09 СЗ 2 20 км 9/6 600 м
[Cu med, cong Cs]
+29.8 +21.9 63 +38 +40 очень
душно
1004.9 952.9
12 15.09 ЮВ 2 2000 м гроза, ливневой дождь 10/10
[Cb cap]
+23.2 +22.1 94 +32 +32 очень
душно
1008.7 955.6 +30.5 61
15 15.09 штиль 0 10 км слаб. дождь {гроза} 10/10 300 м
[Cu Sc]
+22.4 +21.8 96 +30 +30 очень
душно
1010.6 957.2
18 15.09 штиль 0 10 км {гроза} 9/9 450 м
[Cu Sc]
+22.1 +21.1 94 +29 +29 очень
душно
1009.3 955.9 65
21 15.09 штиль 0 10 км 9/9 300 м
[Cu Sc]
+21.9 +20.6 92 +28 +28 душно 1008.2 954.8
00 16.09 штиль 0 20 км 9/9
[Cu Sc]
+23.0 +21.6 92 +31 +31 очень
душно
1009.4 956.3 +21.5 65
03 16.09 З 1 10 км в посл. час ливневой дождь 9/9 300 м
[Cu Sc]
+25.5 +22.2 82 +33 +35 очень
душно
1009.2 956.5

 

Местоположение метеостанции Буонметхуот (Вьетнам): широта 12.68 долгота 108.08 высота над уровнем моря 537 м.

В архиве по умолчанию представлена погода в Буонметхуоте за последнюю неделю. Архивные данные за месяц целиком и за предыдущие месяцы, начиная с января 2011 года, Вы можете получить, выбрав интересующий диапазон дат из раскрывающегося списка и нажав кнопку "Ввод!".


*Определитесь, кто Вы:
робот инопланетянин человек

Внимание! Время в таблицах - всемирное. Для получения местного времени необходимо прибавить поправку, которая равна 7 ч.

Смотрите также архив погоды в соседних городах и на ближайших метеорологических станциях:

Погода в Нячанге (Вьетнам) (133 км)
Погода в Плейку (Вьетнам) (145 км)
Погода в Куинёне (Вьетнам) (172 км)
Погода в Фантхьете (Вьетнам) (195 км)
Погода в Хабе (Вьетнам) (270 км)
Погода в Аттапы (Лаос) (274 км)
Погода в Куангнгае (Вьетнам) (283 км)
Погода в Секонге (Лаос) (330 км)
Погода в Паксе (Лаос) (369 км)
Погода в Дананге (Вьетнам) (378 км)

Пояснения к столбцам:

Ветер - указаны скорость ветра в м/с - средняя за 10 мин, порывы в срок и между сроками (в фигурных скобках) и направление, откуда дует ветер: С - северный, СВ - северо-восточный, В - восточный, ЮВ - юго-восточный, Ю - южный, ЮЗ - юго-западный, З - западный, СЗ - северо-западный.
Видимость - горизонтальная дальность видимости в метрах или километрах. При видимости от 1 до 10 км при отсутствии осадков обычно наблюдается дымка, при ухудшении видимости до 1 км и менее - туман. В сухую погоду видимость может ухудшаться дымом, пылью или мглою.
Явления - указаны атмосферные явления, наблюдавшиеся в срок или в последний час перед сроком; фигурными скобками обозначены явления, наблюдавшиеся между сроками (за 1-3 часа до срока); квадратными скобками обозначены град или гололедные отложения с указанием их диаметра в мм.
Облачность - указаны через наклонную черту общая и нижняя облачность в баллах и высота нижней границы облаков в метрах; квадратными скобками обозначены формы облаков: Ci - перистые, Cs - перисто-слоистые, Cc - перисто-кучевые, Ac - высококучевые, As - высокослоистые, Sc - слоисто-кучевые, Ns - слоисто-дождевые, Cu - кучевые, Cb - кучево-дождевые. Подробнее классификацию облаков см. в Атласе облаков (PDF).
T - Температура воздуха - температура, измеренная на высоте 2 м над землей.
Td - Температура точки росы - температура, при понижении до которой содержащийся в воздухе водяной пар достигнет насыщения.
f - Относительная влажность воздуха - влажноcть воздуха, измеренная на высоте 2 м над землей.
Te - Эффективная температура - температура, которую ощущает одетый по сезону человек в тени. Характеристика душности погоды. При расчете учитывается влияние влажности воздуха и скорости ветра на теплоощущения человека.
Tes - Эффективная температура на солнце - температура, которую ощущает человек, с поправкой на солнечный нагрев. Характеристика знойности погоды. Зависит от высоты солнца над горизонтом, облачности и скорости ветра. Ночью, в пасмурную погоду, а также при ветре 12 м/с и более поправка равна нулю.
P - Атмосферное давление - приведенное к уровню моря атмосферное давление.
Po - Атмосферное давление - измеренное на уровне метеостанции атмосферное давление.
Tmin - Минимальная температура - минимум температуры воздуха на высоте 2 м над землей.
Tmax - Максимальная температура - максимум температуры воздуха на высоте 2 м над землей.
R - Количество осадков - Количество выпавших осадков за период времени, мм. При наведении курсора мыши на число - период времени, за который выпало указанное количество осадков.
R24 - Количество осадков - Количество выпавших осадков за 24 часа, мм.
S - Снежный покров - Высота снежного покрова, см. При наведении курсора мыши на число - состояние снежного покрова и степень покрытия местности в баллах.